1998-067NR

Last updated on May 13, 2018, 12:15 a.m. UTC

1 43468U 98067NR  18132.57580270  .00055982  00000-0  82146-3 0  9997
2 43468  51.6390 196.2295 0001378   0.9694 359.0887 15.54965675100141

Satellite is not in orbit.